Date String (YYYY-MM-DD hh:mm:ss) UTC,Instrument flags,absolute air pressure of the measurement (hPa),sample flow rate (lpm),inlet stack bypass flow (lpm),air temperature of the measurement (°C),ambient temperature measured by the external sensor (°C),aerosol sample conditioner tube jacket temperature (°C),OPC LED temperature (°C),internal box temperature (°C),relative humidity of the measurement (%),span deviation,mass concentration of particles derived from Lorenz-Mie calculation of OPC scattering (μg/m³),mass concentration of particles derived from Lorenz-Mie calculation of OPC scattering (μg/m³),mass concentration of particles derived from Lorenz-Mie calculation of OPC scattering (μg/m³)
DateTimeUTC,F1_M11,P_M11,Q1_M11,Q2_M11,T1_M11,T2_M11,T3_M11,T4_M11,T5_M11,U1_M11,ZSPAN_M11,X2_M11,X0_M11,X1_M11
2023-06-07 08:00:00,SystemResetWarning,0829.3,4.99,000.00,030.1,028.4,000.0,038.7,031.5,22.9,0000.0,0003.61,0007.08,0003.38
2023-06-07 08:01:00,SystemResetWarning,0829.3,5.00,000.00,030.1,028.3,000.0,038.7,031.5,22.9,0000.0,0003.61,0006.94,0003.37
2023-06-07 08:02:00,SystemResetWarning,0829.3,5.00,000.00,030.1,028.3,000.0,038.7,031.5,22.9,0000.0,0003.61,0006.86,0003.36
2023-06-07 08:03:00,SystemResetWarning,0829.4,5.00,000.00,030.1,028.3,000.0,038.7,031.5,23.0,0000.0,0003.59,0006.39,0003.35
2023-06-07 08:04:00,SystemResetWarning,0829.4,5.00,000.00,030.1,028.3,000.0,038.7,031.5,23.0,0000.0,0003.60,0006.41,0003.35
2023-06-07 08:05:00,SystemResetWarning,0829.4,5.01,000.00,030.0,028.3,000.0,038.7,031.5,23.1,0000.0,0003.60,0006.42,0003.34
2023-06-07 08:06:00,SystemResetWarning,0829.4,5.00,000.00,030.0,028.3,000.0,038.7,031.5,23.0,0000.0,0003.64,0006.65,0003.34
2023-06-07 08:07:00,SystemResetWarning,0829.4,5.00,000.00,030.0,028.3,000.0,038.6,031.5,23.1,0000.0,0003.68,0005.85,0003.35
2023-06-07 08:08:00,SystemResetWarning,0829.4,5.01,000.00,030.0,028.3,000.0,038.6,031.5,23.2,0000.0,0003.67,0005.78,0003.34
2023-06-07 08:09:00,SystemResetWarning,0829.4,5.00,000.00,030.0,028.3,000.0,038.6,031.5,23.2,0000.0,0003.68,0005.90,0003.35
2023-06-07 08:10:00,SystemResetWarning,0829.4,5.00,000.00,030.0,028.3,000.0,038.6,031.5,23.1,0000.0,0003.70,0005.92,0003.35
2023-06-07 08:11:00,SystemResetWarning,0829.4,4.99,000.00,030.0,028.3,000.0,038.6,031.4,23.1,0000.0,0003.70,0005.85,0003.35
2023-06-07 08:12:00,SystemResetWarning,0829.4,5.00,000.00,030.0,028.3,000.0,038.6,031.4,23.1,0000.0,0003.74,0005.96,0003.36
2023-06-07 08:13:00,SystemResetWarning,0829.4,4.99,000.00,030.0,028.3,000.0,038.6,031.4,23.1,0000.0,0003.75,0006.99,0003.36
2023-06-07 08:14:00,SystemResetWarning,0829.4,5.00,000.00,030.0,028.3,000.0,038.6,031.5,23.1,0000.0,0003.77,0007.28,0003.35
2023-06-07 08:15:00,SystemResetWarning,0829.3,5.00,000.00,030.0,028.3,000.0,038.6,031.5,23.2,0000.0,0003.76,0007.26,0003.35
2023-06-07 08:16:00,SystemResetWarning,0829.3,5.00,000.00,030.0,028.3,000.0,038.6,031.5,23.2,0000.0,0003.75,0007.22,0003.35
2023-06-07 08:17:00,SystemResetWarning,0829.3,5.00,000.00,030.0,028.3,000.0,038.6,031.5,23.3,0000.0,0003.72,0007.04,0003.35
2023-06-07 08:18:00,SystemResetWarning,0829.3,5.00,000.00,030.0,028.3,000.0,038.6,031.4,23.2,0000.0,0003.70,0006.92,0003.35
2023-06-07 08:19:00,SystemResetWarning,0829.4,5.01,000.00,030.0,028.3,000.0,038.6,031.4,23.2,0000.0,0003.70,0007.76,0003.35
2023-06-07 08:20:00,SystemResetWarning,0829.3,5.01,000.00,030.0,028.3,000.0,038.6,031.5,23.2,0000.0,0003.70,0007.72,0003.35
2023-06-07 08:21:00,SystemResetWarning,0829.3,5.00,000.00,030.0,028.3,000.0,038.6,031.5,23.1,0000.0,0003.69,0007.69,0003.35
2023-06-07 08:22:00,SystemResetWarning,0829.3,4.99,000.00,030.0,028.3,000.0,038.6,031.5,23.1,0000.0,0003.68,0007.65,0003.35
2023-06-07 08:23:00,SystemResetWarning,0829.3,5.00,000.00,030.0,028.3,000.0,038.6,031.5,23.0,0000.0,0003.67,0007.65,0003.34
2023-06-07 08:24:00,SystemResetWarning,0829.3,5.00,000.00,030.0,028.3,000.0,038.6,031.5,23.0,0000.0,0003.66,0007.01,0003.34
2023-06-07 08:25:00,SystemResetWarning,0829.3,5.01,000.00,030.0,028.3,000.0,038.6,031.5,22.9,0000.0,0003.67,0006.75,0003.36
2023-06-07 08:26:00,SystemResetWarning,0829.3,5.01,000.00,030.0,028.3,000.0,038.6,031.5,23.0,0000.0,0003.67,0006.77,0003.37
2023-06-07 08:27:00,SystemResetWarning,0829.3,5.00,000.00,030.0,028.3,000.0,038.6,031.5,23.0,0000.0,0003.68,0006.77,0003.36
2023-06-07 08:28:00,SystemResetWarning,0829.3,5.00,000.00,030.0,028.3,000.0,038.6,031.5,23.0,0000.0,0003.66,0006.72,0003.35
2023-06-07 08:29:00,SystemResetWarning,0829.3,4.99,000.00,030.0,028.3,000.0,038.6,031.5,22.9,0000.0,0003.69,0006.83,0003.36
2023-06-07 08:30:00,SystemResetWarning,0829.3,4.99,000.00,030.0,028.3,000.0,038.6,031.5,22.9,0000.0,0003.69,0005.45,0003.36
2023-06-07 08:31:00,SystemResetWarning,0829.4,5.00,000.00,030.0,028.3,000.0,038.6,031.5,22.9,0000.0,0003.70,0005.51,0003.37
2023-06-07 08:32:00,SystemResetWarning,0829.3,5.01,000.00,030.0,028.3,000.0,038.6,031.5,22.8,0000.0,0003.72,0005.59,0003.37
2023-06-07 08:33:00,SystemResetWarning,0829.4,5.00,000.00,030.0,028.3,000.0,038.6,031.5,22.8,0000.0,0003.71,0005.63,0003.36
2023-06-07 08:34:00,SystemResetWarning,0829.4,5.00,000.00,030.0,028.3,000.0,038.6,031.5,22.8,0000.0,0003.70,0005.57,0003.36
2023-06-07 08:35:00,SystemResetWarning,0829.4,5.00,000.00,030.0,028.3,000.0,038.6,031.4,22.8,0000.0,0003.67,0005.43,0003.35
2023-06-07 08:36:00,SystemResetWarning,0829.3,5.00,000.00,030.0,028.3,000.0,038.6,031.5,22.6,0000.0,0003.65,0005.47,0003.34
2023-06-07 08:37:00,SystemResetWarning,0829.4,5.01,000.00,030.0,028.3,000.0,038.6,031.4,22.5,0000.0,0003.64,0005.77,0003.33
2023-06-07 08:38:00,SystemResetWarning,0829.3,5.00,000.00,030.0,028.3,000.0,038.6,031.4,22.5,0000.0,0003.65,0005.88,0003.34
2023-06-07 08:39:00,SystemResetWarning,0829.3,5.00,000.00,030.0,028.3,000.0,038.6,031.4,22.6,0000.0,0003.65,0005.87,0003.34
2023-06-07 08:40:00,SystemResetWarning,0829.4,5.01,000.00,030.0,028.3,000.0,038.6,031.4,22.7,0000.0,0003.61,0005.75,0003.33
2023-06-07 08:41:00,SystemResetWarning,0829.4,5.00,000.00,030.0,028.3,000.0,038.6,031.4,22.7,0000.0,0003.60,0005.74,0003.32
2023-06-07 08:42:00,SystemResetWarning,0829.4,5.00,000.00,030.0,028.3,000.0,038.6,031.4,22.8,0000.0,0003.59,0005.72,0003.32
2023-06-07 08:43:00,SystemResetWarning,0829.3,5.00,000.00,030.0,028.3,000.0,038.6,031.4,22.8,0000.0,0003.57,0005.66,0003.31
2023-06-07 08:44:00,SystemResetWarning,0829.4,5.00,000.00,030.0,028.3,000.0,038.6,031.4,22.8,0000.0,0003.58,0005.82,0003.31
2023-06-07 08:45:00,SystemResetWarning,0829.4,5.00,000.00,030.0,028.3,000.0,038.6,031.4,23.1,0000.0,0003.58,0005.84,0003.31
2023-06-07 08:46:00,SystemResetWarning,0829.3,4.99,000.00,030.0,028.3,000.0,038.6,031.4,22.8,0000.0,0003.60,0006.12,0003.32
2023-06-07 08:47:00,SystemResetWarning,0829.3,5.00,000.00,030.0,028.3,000.0,038.6,031.4,22.6,0000.0,0003.60,0006.10,0003.32
2023-06-07 08:48:00,SystemResetWarning,0829.3,5.00,000.00,030.0,028.3,000.0,038.6,031.4,22.6,0000.0,0003.59,0005.74,0003.31
2023-06-07 08:49:00,SystemResetWarning,0829.4,5.00,000.00,030.0,028.3,000.0,038.6,031.5,22.9,0000.0,0003.59,0006.27,0003.31
2023-06-07 08:50:00,SystemResetWarning,0829.4,5.01,000.00,030.0,028.3,000.0,038.6,031.5,23.2,0000.0,0003.60,0006.38,0003.30
2023-06-07 08:51:00,SystemResetWarning,0829.4,4.99,000.00,030.0,028.3,000.0,038.6,031.5,23.5,0000.0,0003.62,0006.57,0003.31
2023-06-07 08:52:00,SystemResetWarning,0829.4,5.00,000.00,030.0,028.3,000.0,038.6,031.4,23.4,0000.0,0003.66,0006.75,0003.32
2023-06-07 08:53:00,SystemResetWarning,0829.4,5.01,000.00,030.0,028.3,000.0,038.6,031.5,22.9,0000.0,0003.66,0006.75,0003.33
2023-06-07 08:54:00,SystemResetWarning,0829.4,5.01,000.00,030.0,028.3,000.0,038.6,031.4,22.5,0000.0,0003.64,0006.69,0003.32
2023-06-07 08:55:00,SystemResetWarning,0829.4,5.00,000.00,030.0,028.2,000.0,038.6,031.4,22.4,0000.0,0003.62,0006.45,0003.32
2023-06-07 08:56:00,SystemResetWarning,0829.5,5.00,000.00,030.0,028.2,000.0,038.6,031.4,22.4,0000.0,0003.61,0006.50,0003.31
2023-06-07 08:57:00,SystemResetWarning,0829.4,5.00,000.00,030.0,028.2,000.0,038.6,031.3,22.4,0000.0,0003.59,0006.28,0003.29
2023-06-07 08:58:00,SystemResetWarning,0829.4,4.99,000.00,029.9,028.2,000.0,038.6,031.3,22.5,0000.0,0003.58,0006.79,0003.28
2023-06-07 08:59:00,SystemResetWarning,0829.5,5.00,000.00,029.9,028.1,000.0,038.6,031.2,22.9,0000.0,0003.60,0007.37,0003.28
